CW8284 Weather Reports


Display with metric or nautical units.
time (UTC)temp
F
wind
direction
speed
MPH
gust
MPH
rain 1hr
in
rain 24hr
in
rain mn
in
humidity
%
barometer
mb
20200221004438 78 225 1.0 2.0 0.00 0.00 0.00 1014.9
20200221004339 78 157 0.0 1.0 0.00 0.00 0.00 1014.7
20200221003939 78 225 1.0 4.0 0.00 0.00 0.00 1014.8
20200221003839 78 225 1.0 1.0 0.00 0.00 0.00 1014.9
20200221003739 78 180 1.0 3.0 0.00 0.00 0.00 1014.8
20200221003639 78 202 1.0 1.0 0.00 0.00 0.00 1014.9
20200221003539 78 225 1.0 2.0 0.00 0.00 0.00 1014.9
20200221002839 79 180 1.0 2.0 0.00 0.00 0.00 1014.8
20200221002739 79 225 1.0 2.0 0.00 0.00 0.00 1014.8
20200221002639 79 270 3.0 6.0 0.00 0.00 0.00 1014.8
20200221001339 80 202 1.0 3.0 0.00 0.00 0.00 1015.0
20200221001239 80 180 2.0 4.0 0.00 0.00 0.00 1014.7
20200221000839 80 202 0.0 1.0 0.00 0.00 0.00 1014.7
20200221000739 80 202 1.0 1.0 0.00 0.00 0.00 1014.8
20200221000340 80 202 1.0 3.0 0.00 0.00 0.00 1014.9
20200221000239 80 225 2.0 4.0 0.00 0.00 0.00 1014.9
20200221000139 80 247 0.0 2.0 0.00 0.00 0.00 1015.0
20200220235439 81 202 1.0 3.0 0.00 0.00 0.00 1015.0
20200220235339 80 202 2.0 3.0 0.00 0.00 0.00 1015.0
20200220235238 81 157 1.0 3.0 0.00 0.00 0.00 1014.9
20200220235139 81 157 1.0 3.0 0.00 0.00 0.00 1015.0
20200220235039 81 225 1.0 2.0 0.00 0.00 0.00 1015.0
20200220234639 81 202 1.0 2.0 0.00 0.00 0.00 1014.9
20200220234538 81 202 2.0 2.0 0.00 0.00 0.00 1014.9
20200220234439 81 225 1.0 2.0 0.00 0.00 0.00 1014.8
20200220234038 81 112 1.0 2.0 0.00 0.00 0.00 1014.9
20200220233339 81 157 1.0 2.0 0.00 0.00 0.00 1015.0
20200220232939 80 22 0.0 2.0 0.00 0.00 0.00 1014.8
20200220232539 81 180 3.0 4.0 0.00 0.00 0.00 1015.0
20200220232439 81 135 2.0 5.0 0.00 0.00 0.00 1014.8
20200220232039 80 180 1.0 2.0 0.00 0.00 0.00 1015.0
20200220231939 80 225 1.0 2.0 0.00 0.00 0.00 1014.8
20200220231839 80 292 3.0 6.0 0.00 0.00 0.00 1015.1
20200220231739 80 225 3.0 4.0 0.00 0.00 0.00 1014.9
20200220231338 81 225 1.0 3.0 0.00 0.00 0.00 1014.9
20200220230939 82 180 1.0 3.0 0.00 0.00 0.00 1014.9
20200220230839 82 135 1.0 3.0 0.00 0.00 0.00 1014.9
20200220230439 82 157 1.0 3.0 0.00 0.00 0.00 1014.8
20200220230338 82 180 1.0 3.0 0.00 0.00 0.00 1014.7
20200220225939 81 157 0.0 1.0 0.00 0.00 0.00 1014.8
20200220225839 81 225 0.0 1.0 0.00 0.00 0.00 1014.7
20200220225739 81 225 1.0 2.0 0.00 0.00 0.00 1014.8
20200220225639 81 225 2.0 3.0 0.00 0.00 0.00 1014.9
20200220225539 81 225 1.0 2.0 0.00 0.00 0.00 1015.0
20200220225439 81 202 1.0 2.0 0.00 0.00 0.00 1014.8
20200220225039 81 202 1.0 2.0 0.00 0.00 0.00 1015.0
20200220224938 82 180 1.0 1.0 0.00 0.00 0.00 1014.6
20200220224839 82 180 1.0 2.0 0.00 0.00 0.00 1014.6
20200220224739 82 202 1.0 2.0 0.00 0.00 0.00 1014.9
20200220224638 82 67 3.0 5.0 0.00 0.00 0.00 1014.6
20200220224239 81 247 1.0 3.0 0.00 0.00 0.00 1014.8
20200220224139 81 180 3.0 5.0 0.00 0.00 0.00 1014.9
20200220223739 81 202 2.0 4.0 0.00 0.00 0.00 1014.8
20200220223639 81 157 2.0 3.0 0.00 0.00 0.00 1014.8
20200220223539 80 270 1.0 3.0 0.00 0.00 0.00 1015.0
20200220223439 80 202 1.0 2.0 0.00 0.00 0.00 1014.9
20200220223339 80 0 2.0 3.0 0.00 0.00 0.00 1015.2
20200220222938 79 315 2.0 2.0 0.00 0.00 0.00 1015.1
20200220222239 79 45 2.0 3.0 0.00 0.00 0.00 1015.1
20200220221839 79 22 2.0 3.0 0.00 0.00 0.00 1015.0
20200220221139 81 112 0.0 2.0 0.00 0.00 0.00 1015.1
20200220221039 81 157 1.0 1.0 0.00 0.00 0.00 1015.1
20200220220939 82 225 1.0 2.0 0.00 0.00 0.00 1015.1
20200220220239 80 135 1.0 2.0 0.00 0.00 0.00 1015.2
20200220220139 80 135 1.0 2.0 0.00 0.00 0.00 1015.3
20200220220039 80 90 1.0 3.0 0.00 0.00 0.00 1015.2
20200220215639 80 225 2.0 5.0 0.00 0.00 0.00 1015.2
20200220215539 80 202 3.0 5.0 0.00 0.00 0.00 1015.2
20200220215439 81 225 2.0 4.0 0.00 0.00 0.00 1015.2
20200220215038 81 180 2.0 4.0 0.00 0.00 0.00 1015.3
20200220214939 81 202 2.0 3.0 0.00 0.00 0.00 1015.4
20200220213039 79 157 1.0 2.0 0.00 0.00 0.00 1015.7
20200220212639 80 225 2.0 3.0 0.00 0.00 0.00 1016.0
20200220212239 79 247 2.0 3.0 0.00 0.00 0.00 1015.9
20200220212139 79 247 2.0 3.0 0.00 0.00 0.00 1015.9
20200220212039 79 225 2.0 4.0 0.00 0.00 0.00 1015.8
20200220211938 79 247 4.0 4.0 0.00 0.00 0.00 1015.9
20200220211538 80 202 1.0 2.0 0.00 0.00 0.00 1015.8
20200220211439 80 112 1.0 2.0 0.00 0.00 0.00 1015.8
20200220211338 80 157 1.0 2.0 0.00 0.00 0.00 1015.9
20200220211239 79 90 1.0 3.0 0.00 0.00 0.00 1015.8
20200220211139 79 157 3.0 6.0 0.00 0.00 0.00 1016.0
20200220211039 79 112 1.0 3.0 0.00 0.00 0.00 1015.9
20200220210938 79 202 1.0 2.0 0.00 0.00 0.00 1016.1
20200220210839 79 225 2.0 3.0 0.00 0.00 0.00 1015.9
20200220205839 79 225 4.0 5.0 0.00 0.00 0.00 1016.5
20200220205739 79 202 2.0 4.0 0.00 0.00 0.00 1016.4
20200220205338 78 202 1.0 2.0 0.00 0.00 0.00 1016.4
20200220205239 79 202 2.0 3.0 0.00 0.00 0.00 1016.3
20200220205138 79 180 0.0 1.0 0.00 0.00 0.00 1016.5
20200220204739 78 180 1.0 2.0 0.00 0.00 0.00 1016.3
20200220204639 78 157 2.0 5.0 0.00 0.00 0.00 1016.5
20200220204539 78 180 1.0 3.0 0.00 0.00 0.00 1016.3
20200220203239 77 247 1.0 2.0 0.00 0.00 0.00 1016.8
20200220203139 78 225 1.0 2.0 0.00 0.00 0.00 1016.7
20200220203039 78 180 1.0 2.0 0.00 0.00 0.00 1016.8
20200220202938 78 180 1.0 3.0 0.00 0.00 0.00 1016.7
20200220202839 78 202 1.0 3.0 0.00 0.00 0.00 1016.8
20200220202739 78 157 1.0 3.0 0.00 0.00 0.00 1016.7
20200220202639 78 202 1.0 2.0 0.00 0.00 0.00 1016.8
20200220202539 78 202 1.0 2.0 0.00 0.00 0.00 1016.9
20200220202438 78 225 2.0 4.0 0.00 0.00 0.00 1017.0
20200220202339 78 202 4.0 6.0 0.00 0.00 0.00 1016.8
20200220202239 78 135 1.0 5.0 0.00 0.00 0.00 1016.9
20200220202139 78 135 1.0 2.0 0.00 0.00 0.00 1016.8
20200220202039 78 157 1.0 2.0 0.00 0.00 0.00 1016.9
20200220201639 78 180 1.0 4.0 0.00 0.00 0.00 1016.9
20200220201539 78 90 1.0 2.0 0.00 0.00 0.00 1016.9
20200220201138 78 112 1.0 2.0 0.00 0.00 0.00 1017.1
20200220201039 77 247 0.0 1.0 0.00 0.00 0.00 1017.0
20200220200939 77 157 1.0 1.0 0.00 0.00 0.00 1017.1
20200220200838 77 135 0.0 1.0 0.00 0.00 0.00 1017.1
20200220200739 78 270 0.0 2.0 0.00 0.00 0.00 1017.1
20200220200639 77 90 0.0 1.0 0.00 0.00 0.00 1017.3
20200220200538 77 157 1.0 2.0 0.00 0.00 0.00 1017.4
20200220200439 77 112 1.0 2.0 0.00 0.00 0.00 1017.3
20200220195438 77 157 2.0 7.0 0.00 0.00 0.00 1017.5
20200220195039 77 157 1.0 1.0 0.00 0.00 0.00 1017.4
20200220194939 77 135 0.0 1.0 0.00 0.00 0.00 1017.4
20200220194839 77 135 1.0 2.0 0.00 0.00 0.00 1017.3
20200220192939 76 247 1.0 2.0 0.00 0.00 0.00 1017.8
20200220192538 76 45 1.0 3.0 0.00 0.00 0.00 1017.9
20200220192439 76 90 1.0 2.0 0.00 0.00 0.00 1017.8
20200220192339 76 90 1.0 2.0 0.00 0.00 0.00 1017.7
20200220191939 75 22 2.0 3.0 0.00 0.00 0.00 1018.0
20200220191840 76 202 1.0 4.0 0.00 0.00 0.00 1018.0
20200220191439 76 112 1.0 1.0 0.00 0.00 0.00 1018.1
20200220191339 75 135 1.0 2.0 0.00 0.00 0.00 1018.0
20200220191239 75 112 2.0 3.0 0.00 0.00 0.00 1018.0
20200220191139 76 67 2.0 3.0 0.00 0.00 0.00 1018.2
20200220190739 75 112 2.0 4.0 0.00 0.00 0.00 1018.3
20200220190639 75 157 2.0 3.0 0.00 0.00 0.00 1018.3
20200220190539 76 180 2.0 5.0 0.00 0.00 0.00 1018.4
20200220190439 76 157 2.0 4.0 0.00 0.00 0.00 1018.3
20200220190340 76 90 2.0 4.0 0.00 0.00 0.00 1018.4
20200220190239 76 67 1.0 2.0 0.00 0.00 0.00 1018.3
20200220190139 76 135 1.0 3.0 0.00 0.00 0.00 1018.2
20200220185739 75 90 3.0 4.0 0.00 0.00 0.00 1018.4
20200220185638 75 135 5.0 7.0 0.00 0.00 0.00 1018.4
20200220185539 76 180 1.0 3.0 0.00 0.00 0.00 1018.4
20200220185439 76 67 1.0 2.0 0.00 0.00 0.00 1018.6
20200220185039 76 157 3.0 6.0 0.00 0.00 0.00 1018.6
20200220184639 77 135 1.0 2.0 0.00 0.00 0.00 1018.6
20200220184540 78 135 1.0 3.0 0.00 0.00 0.00 1018.6
20200220184439 77 292 1.0 1.0 0.00 0.00 0.00 1018.6
20200220184338 77 225 0.0 2.0 0.00 0.00 0.00 1018.5
20200220183639 75 157 1.0 2.0 0.00 0.00 0.00 1018.4
20200220183539 75 135 1.0 1.0 0.00 0.00 0.00 1018.6
20200220183439 74 90 1.0 2.0 0.00 0.00 0.00 1018.4
20200220183339 74 157 1.0 2.0 0.00 0.00 0.00 1018.4
20200220182938 72 22 1.0 2.0 0.00 0.00 0.00 1018.4
20200220182238 68 157 0.0 1.0 0.00 0.00 0.00 1018.4
20200220181839 68 292 0.0 1.0 0.00 0.00 0.00 1018.5
20200220181738 68 112 0.0 0.0 0.00 0.00 0.00 1018.5
20200220181638 68 180 0.0 2.0 0.00 0.00 0.00 1018.5
20200220181539 67 112 1.0 2.0 0.00 0.00 0.00 1018.6
20200220181439 67 157 2.0 3.0 0.00 0.00 0.00 1018.5
20200220180739 66 157 1.0 1.0 0.00 0.00 0.00 1018.6
20200220180339 66 202 0.0 2.0 0.00 0.00 0.00 1018.6
20200220175939 66 225 0.0 1.0 0.00 0.00 0.00 1018.6
20200220175839 66 202 1.0 2.0 0.00 0.00 0.00 1018.6
20200220175139 65 157 2.0 3.0 0.00 0.00 0.00 1018.6
20200220175038 65 202 1.0 2.0 0.00 0.00 0.00 1018.5
20200220174939 65 157 1.0 2.0 0.00 0.00 0.00 1018.6
20200220174839 64 225 1.0 2.0 0.00 0.00 0.00 1018.5
20200220174739 64 135 0.0 2.0 0.00 0.00 0.00 1018.5
20200220174638 64 225 0.0 0.0 0.00 0.00 0.00 1018.5
20200220174538 65 225 0.0 1.0 0.00 0.00 0.00 1018.4
20200220174439 65 135 1.0 2.0 0.00 0.00 0.00 1018.5
20200220174038 64 202 0.0 1.0 0.00 0.00 0.00 1018.4
20200220173940 64 225 1.0 2.0 0.00 0.00 0.00 1018.4
20200220173539 64 135 0.0 1.0 0.00 0.00 0.00 1018.3
20200220173139 64 135 0.0 1.0 0.00 0.00 0.00 1018.3
20200220173038 64 112 1.0 2.0 0.00 0.00 0.00 1018.3
20200220172339 64 247 0.0 1.0 0.00 0.00 0.00 1018.3
20200220171939 64 67 1.0 2.0 0.00 0.00 0.00 1018.2
20200220171839 63 45 0.0 2.0 0.00 0.00 0.00 1018.6
20200220171439 63 202 0.0 0.0 0.00 0.00 0.00 1018.2
20200220171339 62 157 1.0 2.0 0.00 0.00 0.00 1018.5
20200220171238 61 67 1.0 2.0 0.00 0.00 0.00 1018.4
20200220171139 61 135 1.0 2.0 0.00 0.00 0.00 1018.6
20200220171039 61 90 0.0 0.0 0.00 0.00 0.00 1018.2
20200220170938 61 135 0.0 1.0 0.00 0.00 0.00 1018.6
20200220170539 60 202 0.0 0.0 0.00 0.00 0.00 1018.8
20200220170439 60 202 0.0 0.0 0.00 0.00 0.00 1018.6
20200220170339 60 157 0.0 1.0 0.00 0.00 0.00 1018.6
20200220170239 60 180 0.0 0.0 0.00 0.00 0.00 1018.7
20200220170139 60 202 0.0 1.0 0.00 0.00 0.00 1018.6
20200220170039 59 202 0.0 1.0 0.00 0.00 0.00 1018.8
20200220165938 59 157 0.0 1.0 0.00 0.00 0.00 1018.7
20200220165839 59 202 0.0 0.0 0.00 0.00 0.00 1018.8
20200220165738 59 157 0.0 0.0 0.00 0.00 0.00 1018.8
20200220165639 59 202 0.0 1.0 0.00 0.00 0.00 1018.7
20200220165539 59 135 1.0 1.0 0.00 0.00 0.00 1018.7
20200220165139 59 112 0.0 0.0 0.00 0.00 0.00 1018.8
20200220165039 58 202 0.0 0.0 0.00 0.00 0.00 1018.6
20200220164939 58 180 0.0 0.0 0.00 0.00 0.00 1018.6
20200220164839 58 202 0.0 0.0 0.00 0.00 0.00 1018.6
20200220164739 57 202 0.0 1.0 0.00 0.00 0.00 1018.6
20200220164639 57 202 1.0 2.0 0.00 0.00 0.00 1018.5
20200220164539 57 157 1.0 2.0 0.00 0.00 0.00 1018.7
20200220164439 57 157 1.0 1.0 0.00 0.00 0.00 1018.2
20200220164339 57 135 0.0 1.0 0.00 0.00 0.00 1018.5
20200220163638 58 270 0.0 0.0 0.00 0.00 0.00 1018.3
20200220163539 57 337 1.0 2.0 0.00 0.00 0.00 1018.3
20200220163439 57 90 1.0 2.0 0.00 0.00 0.00 1018.2
20200220163339 57 135 0.0 1.0 0.00 0.00 0.00 1018.3
20200220163239 57 112 0.0 1.0 0.00 0.00 0.00 1018.2
20200220163139 56 225 0.0 0.0 0.00 0.00 0.00 1018.3
20200220162139 54 225 0.0 1.0 0.00 0.00 0.00 1018.4
20200220162039 54 157 1.0 2.0 0.00 0.00 0.00 1018.3
20200220161938 54 180 0.0 0.0 0.00 0.00 0.00 1018.3
20200220161539 54 157 0.0 1.0 0.00 0.00 0.00 1018.4
20200220161439 54 225 0.0 1.0 0.00 0.00 0.00 1018.3
20200220161339 54 202 0.0 0.0 0.00 0.00 0.00 1018.3
20200220161239 54 202 0.0 0.0 0.00 0.00 0.00 1018.4
20200220161139 54 202 0.0 0.0 0.00 0.00 0.00 1018.2
20200220161039 54 225 0.0 0.0 0.00 0.00 0.00 1018.2
20200220160938 53 225 0.0 0.0 0.00 0.00 0.00 1018.1
20200220160840 53 225 0.0 0.0 0.00 0.00 0.00 1018.1
20200220160739 53 225 0.0 1.0 0.00 0.00 0.00 1018.1
20200220160639 53 180 0.0 1.0 0.00 0.00 0.00 1018.2
20200220160539 52 270 0.0 1.0 0.00 0.00 0.00 1018.2
20200220160138 51 270 0.0 0.0 0.00 0.00 0.00 1018.1
20200220160039 51 292 0.0 0.0 0.00 0.00 0.00 1018.2
20200220155939 51 315 0.0 0.0 0.00 0.00 0.00 1018.0
20200220155838 51 292 0.0 0.0 0.00 0.00 0.00 1017.9
20200220155140 49 225 0.0 0.0 0.00 0.00 0.00 1017.9
20200220154739 48 225 0.0 0.0 0.00 0.00 0.00 1017.8
20200220154639 48 225 0.0 0.0 0.00 0.00 0.00 1017.8
20200220153939 47 202 0.0 0.0 0.00 0.00 0.00 1018.0
20200220153839 47 202 0.0 0.0 0.00 0.00 0.00 1017.9
20200220153740 47 202 0.0 0.0 0.00 0.00 0.00 1017.9
20200220153338 47 202 0.0 0.0 0.00 0.00 0.00 1017.9
20200220153240 47 112 0.0 0.0 0.00 0.00 0.00 1017.8
20200220152839 46 270 0.0 0.0 0.00 0.00 0.00 1017.9
20200220152739 46 270 0.0 0.0 0.00 0.00 0.00 1018.0
20200220152639 46 270 0.0 0.0 0.00 0.00 0.00 1017.9
20200220152539 46 292 0.0 0.0 0.00 0.00 0.00 1017.7
20200220152439 46 292 0.0 0.0 0.00 0.00 0.00 1017.8
20200220151739 45 22 1.0 1.0 0.00 0.00 0.00 1017.8
20200220151640 45 0 1.0 1.0 0.00 0.00 0.00 1017.8
20200220151539 45 0 1.0 2.0 0.00 0.00 0.00 1017.9
20200220151438 45 0 1.0 2.0 0.00 0.00 0.00 1017.9
20200220151039 44 0 0.0 1.0 0.00 0.00 0.00 1018.0
20200220150640 44 22 0.0 0.0 0.00 0.00 0.00 1018.0
20200220150539 44 22 0.0 1.0 0.00 0.00 0.00 1018.0
20200220150439 43 45 1.0 2.0 0.00 0.00 0.00 1018.0
20200220150341 44 45 0.0 0.0 0.00 0.00 0.00 1018.0
20200220150239 44 247 0.0 0.0 0.00 0.00 0.00 1017.9
20200220150139 43 247 0.0 0.0 0.00 0.00 0.00 1018.0
20200220150039 43 247 0.0 0.0 0.00 0.00 0.00 1017.8
20200220145939 43 247 0.0 0.0 0.00 0.00 0.00 1017.8
20200220145539 44 247 0.0 0.0 0.00 0.00 0.00 1017.9
20200220145438 43 247 0.0 0.0 0.00 0.00 0.00 1018.0
20200220145339 43 247 0.0 0.0 0.00 0.00 0.00 1017.9
20200220145239 43 270 0.0 0.0 0.00 0.00 0.00 1017.9
20200220145139 43 225 0.0 0.0 0.00 0.00 0.00 1017.8
20200220145039 43 225 0.0 0.0 0.00 0.00 0.00 1017.9
20200220144640 43 225 1.0 1.0 0.00 0.00 0.00 1017.8
20200220144240 43 135 0.0 0.0 0.00 0.00 0.00 1017.6
20200220143839 42 135 0.0 0.0 0.00 0.00 0.00 1017.6
20200220143440 43 135 0.0 0.0 0.00 0.00 0.00 1017.5
20200220143339 43 135 0.0 0.0 0.00 0.00 0.00 1017.4
20200220143241 43 135 0.0 0.0 0.00 0.00 0.00 1017.5
20200220143138 43 135 0.0 0.0 0.00 0.00 0.00 1017.5
20200220143039 43 135 0.0 0.0 0.00 0.00 0.00 1017.4
20200220142939 43 135 0.0 0.0 0.00 0.00 0.00 1017.4
20200220142839 43 135 0.0 0.0 0.00 0.00 0.00 1017.2
20200220142739 43 135 0.0 0.0 0.00 0.00 0.00 1017.3
20200220142639 44 135 0.0 0.0 0.00 0.00 0.00 1017.3
20200220141339 44 22 0.0 1.0 0.00 0.00 0.00 1017.0
20200220141239 44 22 1.0 1.0 0.00 0.00 0.00 1017.3
20200220141139 43 0 1.0 2.0 0.00 0.00 0.00 1016.9
20200220141039 43 337 1.0 2.0 0.00 0.00 0.00 1017.0
20200220140939 43 0 1.0 2.0 0.00 0.00 0.00 1016.9
20200220140839 43 22 1.0 1.0 0.00 0.00 0.00 1017.4
20200220140739 43 0 1.0 2.0 0.00 0.00 0.00 1017.1
20200220140339 43 22 0.0 0.0 0.00 0.00 0.00 1017.0
20200220140239 43 337 0.0 0.0 0.00 0.00 0.00 1017.0
20200220140139 43 0 0.0 0.0 0.00 0.00 0.00 1017.0
20200220140038 43 45 0.0 0.0 0.00 0.00 0.00 1017.2
20200220135939 43 22 0.0 0.0 0.00 0.00 0.00 1017.1
20200220135839 43 337 0.0 0.0 0.00 0.00 0.00 1017.0
20200220135139 43 337 0.0 0.0 0.00 0.00 0.00 1016.8
20200220135038 43 337 0.0 0.0 0.00 0.00 0.00 1016.8
20200220134939 43 337 0.0 0.0 0.00 0.00 0.00 1017.0
20200220134538 43 45 0.0 0.0 0.00 0.00 0.00 1017.0
20200220134439 43 67 0.0 0.0 0.00 0.00 0.00 1016.7
20200220134039 43 90 0.0 1.0 0.00 0.00 0.00 1016.7
20200220133339 43 337 0.0 0.0 0.00 0.00 0.00 1016.5
20200220132639 43 315 0.0 0.0 0.00 0.00 0.00 1016.6
20200220132539 43 337 0.0 0.0 0.00 0.00 0.00 1016.6
20200220132439 43 337 0.0 0.0 0.00 0.00 0.00 1016.5
20200220132039 43 292 0.0 0.0 0.00 0.00 0.00 1016.6
20200220131938 43 292 0.0 0.0 0.00 0.00 0.00 1016.7
20200220131839 42 292 0.0 0.0 0.00 0.00 0.00 1016.7
20200220131739 42 292 0.0 0.0 0.00 0.00 0.00 1016.7
20200220131639 43 292 0.0 0.0 0.00 0.00 0.00 1016.7
20200220131539 43 292 0.0 0.0 0.00 0.00 0.00 1016.6
20200220131138 43 292 0.0 0.0 0.00 0.00 0.00 1016.6
20200220130439 43 292 0.0 0.0 0.00 0.00 0.00 1016.5
20200220130339 43 292 0.0 0.0 0.00 0.00 0.00 1016.4
20200220125938 43 337 0.0 0.0 0.00 0.00 0.00 1016.6
20200220125539 43 337 0.0 0.0 0.00 0.00 0.00 1016.5
20200220125439 43 337 0.0 0.0 0.00 0.00 0.00 1016.4
20200220125038 43 225 0.0 0.0 0.00 0.00 0.00 1016.4
20200220124938 43 225 0.0 0.0 0.00 0.00 0.00 1016.4
20200220124839 43 225 0.0 0.0 0.00 0.00 0.00 1016.5
20200220124738 43 225 0.0 0.0 0.00 0.00 0.00 1016.3
20200220124638 43 225 0.0 0.0 0.00 0.00 0.00 1016.3
20200220124539 43 225 0.0 0.0 0.00 0.00 0.00 1016.5
20200220124438 43 270 0.0 0.0 0.00 0.00 0.00 1016.1
20200220124339 43 270 0.0 0.0 0.00 0.00 0.00 1016.1
20200220124239 43 270 0.0 0.0 0.00 0.00 0.00 1016.1
20200220124138 43 270 0.0 0.0 0.00 0.00 0.00 1016.5
20200220123738 43 270 0.0 0.0 0.00 0.00 0.00 1016.2
20200220123639 43 337 0.0 0.0 0.00 0.00 0.00 1016.3
20200220123539 43 337 0.0 0.0 0.00 0.00 0.00 1016.2
20200220123139 43 22 0.0 0.0 0.00 0.00 0.00 1016.2
20200220123039 44 22 0.0 0.0 0.00 0.00 0.00 1016.2
20200220122639 43 22 0.0 0.0 0.00 0.00 0.00 1016.2
20200220122539 44 22 0.0 0.0 0.00 0.00 0.00 1016.1
20200220122439 44 22 0.0 0.0 0.00 0.00 0.00 1016.2
20200220122339 44 22 0.0 0.0 0.00 0.00 0.00 1016.4
20200220122239 44 22 0.0 0.0 0.00 0.00 0.00 1016.3
20200220122138 44 22 0.0 0.0 0.00 0.00 0.00 1016.3
20200220122039 44 22 0.0 0.0 0.00 0.00 0.00 1016.3
20200220121939 44 22 0.0 0.0 0.00 0.00 0.00 1016.5
20200220121839 44 22 0.0 0.0 0.00 0.00 0.00 1016.5
20200220121739 44 0 0.0 0.0 0.00 0.00 0.00 1016.3
20200220121639 44 0 0.0 0.0 0.00 0.00 0.00 1016.4
20200220121239 44 337 0.0 0.0 0.00 0.00 0.00 1016.2
20200220121138 44 292 0.0 0.0 0.00 0.00 0.00 1016.3
20200220121039 44 292 0.0 0.0 0.00 0.00 0.00 1016.5
20200220120339 44 292 0.0 0.0 0.00 0.00 0.00 1016.4
20200220120239 44 292 0.0 0.0 0.00 0.00 0.00 1016.4
20200220120139 44 292 0.0 0.0 0.00 0.00 0.00 1016.6
20200220120038 44 292 0.0 0.0 0.00 0.00 0.00 1016.2
20200220115339 44 315 0.0 1.0 0.00 0.00 0.00 1016.4
20200220115239 44 292 0.0 0.0 0.00 0.00 0.00 1016.2
20200220114839 44 292 0.0 1.0 0.00 0.00 0.00 1016.3
20200220114439 44 292 0.0 0.0 0.00 0.00 0.00 1016.2
20200220113439 44 270 0.0 0.0 0.00 0.00 0.00 1016.4
20200220112739 44 270 0.0 0.0 0.00 0.00 0.00 1016.4
20200220112638 44 270 0.0 0.0 0.00 0.00 0.00 1016.4
20200220112539 44 270 0.0 0.0 0.00 0.00 0.00 1016.4
20200220112438 44 270 0.0 0.0 0.00 0.00 0.00 1016.2
20200220111739 45 0 0.0 0.0 0.00 0.00 0.00 1016.3
20200220111639 45 0 0.0 0.0 0.00 0.00 0.00 1016.5
20200220111539 44 315 0.0 0.0 0.00 0.00 0.00 1016.3
20200220111439 44 315 0.0 0.0 0.00 0.00 0.00 1016.5
20200220111339 44 247 0.0 0.0 0.00 0.00 0.00 1016.4
20200220111239 45 247 0.0 0.0 0.00 0.00 0.00 1016.5
20200220111138 45 247 0.0 0.0 0.00 0.00 0.00 1016.4
20200220111039 45 247 0.0 0.0 0.00 0.00 0.00 1016.3
20200220110938 45 247 0.0 0.0 0.00 0.00 0.00 1016.3
20200220110839 45 270 0.0 0.0 0.00 0.00 0.00 1016.4
20200220110739 44 270 0.0 0.0 0.00 0.00 0.00 1016.4
20200220110639 45 315 0.0 0.0 0.00 0.00 0.00 1016.4
20200220110538 45 337 0.0 0.0 0.00 0.00 0.00 1016.5
20200220110439 45 337 0.0 0.0 0.00 0.00 0.00 1016.4
20200220110339 45 337 0.0 0.0 0.00 0.00 0.00 1016.5
20200220110239 45 337 0.0 0.0 0.00 0.00 0.00 1016.7
20200220110138 45 45 0.0 0.0 0.00 0.00 0.00 1016.5
20200220110039 45 22 0.0 0.0 0.00 0.00 0.00 1016.5
20200220105938 45 22 0.0 0.0 0.00 0.00 0.00 1016.5
20200220105839 45 22 0.0 0.0 0.00 0.00 0.00 1016.4
20200220105439 45 22 0.0 0.0 0.00 0.00 0.00 1016.5
20200220105338 45 22 0.0 0.0 0.00 0.00 0.00 1016.5
20200220105238 45 22 0.0 0.0 0.00 0.00 0.00 1016.5
20200220104539 46 22 0.0 0.0 0.00 0.00 0.00 1016.6
20200220103839 45 0 0.0 0.0 0.00 0.00 0.00 1016.6
20200220103739 45 0 0.0 1.0 0.00 0.00 0.00 1016.7
20200220103638 46 0 0.0 1.0 0.00 0.00 0.00 1016.8
20200220103539 45 337 0.0 0.0 0.00 0.00 0.00 1016.8
20200220102839 46 0 0.0 1.0 0.00 0.00 0.00 1016.9
20200220102739 46 0 0.0 0.0 0.00 0.00 0.00 1016.9
20200220102639 46 337 0.0 0.0 0.00 0.00 0.00 1016.9
20200220102539 46 315 0.0 0.0 0.00 0.00 0.00 1016.9
20200220102439 46 0 0.0 0.0 0.00 0.00 0.00 1016.9
20200220102339 46 0 0.0 1.0 0.00 0.00 0.00 1016.9
20200220102239 45 0 0.0 0.0 0.00 0.00 0.00 1016.9
20200220101840 46 22 0.0 0.0 0.00 0.00 0.00 1016.9
20200220101739 46 0 0.0 0.0 0.00 0.00 0.00 1017.0
20200220101339 45 22 0.0 0.0 0.00 0.00 0.00 1016.9
20200220100939 46 22 0.0 0.0 0.00 0.00 0.00 1017.0
20200220100839 46 22 0.0 0.0 0.00 0.00 0.00 1017.0
20200220100439 46 22 0.0 0.0 0.00 0.00 0.00 1017.1
20200220100339 46 0 0.0 0.0 0.00 0.00 0.00 1017.1
20200220100239 46 337 0.0 0.0 0.00 0.00 0.00 1017.1
20200220100139 46 337 0.0 0.0 0.00 0.00 0.00 1017.1
20200220095739 46 67 0.0 0.0 0.00 0.00 0.00 1017.1
20200220095639 46 67 0.0 0.0 0.00 0.00 0.00 1017.1
20200220095239 46 67 0.0 0.0 0.00 0.00 0.00 1017.0
20200220095139 46 67 0.0 0.0 0.00 0.00 0.00 1016.8
20200220095039 46 67 0.0 0.0 0.00 0.00 0.00 1017.0
20200220094638 46 67 0.0 0.0 0.00 0.00 0.00 1017.0
20200220094539 46 67 0.0 0.0 0.00 0.00 0.00 1016.8
20200220094139 46 67 0.0 0.0 0.00 0.00 0.00 1016.8
20200220094039 46 67 0.0 0.0 0.00 0.00 0.00 1017.0
20200220093939 46 67 0.0 0.0 0.00 0.00 0.00 1016.7
20200220093239 46 67 0.0 0.0 0.00 0.00 0.00 1017.0
20200220092839 46 67 0.0 0.0 0.00 0.00 0.00 1017.0
20200220092739 47 67 0.0 0.0 0.00 0.00 0.00 1017.2
20200220092639 47 67 0.0 0.0 0.00 0.00 0.00 1017.2
20200220091939 47 22 0.0 0.0 0.00 0.00 0.00 1017.2
20200220091839 47 0 0.0 0.0 0.00 0.00 0.00 1017.3
20200220091739 47 0 0.0 1.0 0.00 0.00 0.00 1017.3
20200220091339 47 0 1.0 2.0 0.00 0.00 0.00 1017.3
20200220090939 47 270 0.0 0.0 0.00 0.00 0.00 1017.1
20200220090839 47 270 0.0 0.0 0.00 0.00 0.00 1017.3
20200220090739 47 270 0.0 0.0 0.00 0.00 0.00 1017.3
20200220090639 47 270 0.0 0.0 0.00 0.00 0.00 1017.2
20200220090239 47 270 0.0 0.0 0.00 0.00 0.00 1017.2
20200220090139 47 292 0.0 0.0 0.00 0.00 0.00 1017.1
20200220090039 47 292 0.0 0.0 0.00 0.00 0.00 1017.1
20200220085339 47 45 0.0 1.0 0.00 0.00 0.00 1016.9
20200220085239 47 45 0.0 0.0 0.00 0.00 0.00 1017.2
20200220085139 47 45 0.0 0.0 0.00 0.00 0.00 1016.9
20200220085039 47 45 0.0 0.0 0.00 0.00 0.00 1016.9
20200220084939 47 45 0.0 0.0 0.00 0.00 0.00 1016.9
20200220084838 47 45 0.0 0.0 0.00 0.00 0.00 1017.0
20200220084738 47 45 0.0 0.0 0.00 0.00 0.00 1017.1
20200220084338 47 45 0.0 0.0 0.00 0.00 0.00 1017.1
20200220084239 47 45 0.0 0.0 0.00 0.00 0.00 1017.0
20200220084139 47 45 0.0 0.0 0.00 0.00 0.00 1017.2
20200220084039 47 45 0.0 1.0 0.00 0.00 0.00 1017.0
20200220083339 48 45 0.0 0.0 0.00 0.00 0.00 1017.4
20200220083239 48 45 0.0 0.0 0.00 0.00 0.00 1017.3
20200220083139 47 45 0.0 0.0 0.00 0.00 0.00 1017.3
20200220083039 47 45 0.0 0.0 0.00 0.00 0.00 1017.3
20200220082938 48 45 0.0 0.0 0.00 0.00 0.00 1017.3
20200220082839 47 45 0.0 0.0 0.00 0.00 0.00 1017.3
20200220082738 48 45 0.0 0.0 0.00 0.00 0.00 1017.4
20200220082639 48 45 0.0 0.0 0.00 0.00 0.00 1017.4
20200220082539 48 45 0.0 0.0 0.00 0.00 0.00 1017.5
20200220082439 48 45 0.0 0.0 0.00 0.00 0.00 1017.4
20200220082339 48 45 0.0 0.0 0.00 0.00 0.00 1017.4
20200220082239 48 45 0.0 0.0 0.00 0.00 0.00 1017.4
20200220082139 48 0 0.0 0.0 0.00 0.00 0.00 1017.4
20200220082039 48 337 0.0 0.0 0.00 0.00 0.00 1017.4
20200220081939 48 337 0.0 0.0 0.00 0.00 0.00 1017.4
20200220081539 49 337 0.0 0.0 0.00 0.00 0.00 1017.4
20200220081439 49 0 0.0 0.0 0.00 0.00 0.00 1017.4
20200220081339 49 0 0.0 0.0 0.00 0.00 0.00 1017.4
20200220081239 49 22 1.0 1.0 0.00 0.00 0.00 1017.3
20200220080539 49 337 0.0 0.0 0.00 0.00 0.00 1017.4
20200220080439 48 337 0.0 0.0 0.00 0.00 0.00 1017.5
20200220080339 48 0 0.0 0.0 0.00 0.00 0.00 1017.4
20200220080239 48 337 0.0 1.0 0.00 0.00 0.00 1017.4
20200220075839 49 0 0.0 0.0 0.00 0.00 0.00 1017.4
20200220075439 48 45 0.0 0.0 0.00 0.00 0.00 1017.3
20200220075339 48 45 0.0 0.0 0.00 0.00 0.00 1017.4
20200220074939 48 45 0.0 0.0 0.00 0.00 0.00 1017.3
20200220074539 49 45 0.0 0.0 0.00 0.00 0.00 1017.3
20200220074439 49 45 0.0 0.0 0.00 0.00 0.00 1017.4
20200220074039 49 45 0.0 0.0 0.00 0.00 0.00 1017.3
20200220073938 49 45 0.0 0.0 0.00 0.00 0.00 1017.2
20200220073839 49 45 0.0 0.0 0.00 0.00 0.00 1017.2
20200220073739 49 45 0.0 0.0 0.00 0.00 0.00 1017.4
20200220073639 49 45 0.0 0.0 0.00 0.00 0.00 1017.5
20200220073539 49 45 0.0 0.0 0.00 0.00 0.00 1017.3
20200220073439 49 45 0.0 0.0 0.00 0.00 0.00 1017.3
20200220073339 49 45 0.0 0.0 0.00 0.00 0.00 1017.7
20200220072339 50 337 0.0 1.0 0.00 0.00 0.00 1017.6
20200220072239 50 337 1.0 1.0 0.00 0.00 0.00 1017.6
20200220071239 50 22 1.0 1.0 0.00 0.00 0.00 1017.6
20200220071138 50 0 0.0 1.0 0.00 0.00 0.00 1017.5
20200220071039 50 337 0.0 1.0 0.00 0.00 0.00 1017.7
20200220070039 49 45 0.0 0.0 0.00 0.00 0.00 1017.5
20200220065938 49 45 0.0 0.0 0.00 0.00 0.00 1017.4
20200220065839 49 45 0.0 0.0 0.00 0.00 0.00 1017.3
20200220065739 49 45 0.0 0.0 0.00 0.00 0.00 1017.4
20200220065639 49 45 0.0 0.0 0.00 0.00 0.00 1017.3
20200220065539 49 45 0.0 0.0 0.00 0.00 0.00 1017.3
20200220065439 50 45 0.0 0.0 0.00 0.00 0.00 1017.5
20200220065339 50 45 0.0 0.0 0.00 0.00 0.00 1017.2
20200220064939 50 45 0.0 0.0 0.00 0.00 0.00 1017.3
20200220064839 50 45 0.0 0.0 0.00 0.00 0.00 1017.4
20200220064739 50 45 0.0 0.0 0.00 0.00 0.00 1017.3
20200220064639 50 45 0.0 0.0 0.00 0.00 0.00 1017.3
20200220064539 50 45 0.0 0.0 0.00 0.00 0.00 1017.4
20200220063839 50 45 0.0 0.0 0.00 0.00 0.00 1017.3
20200220063739 50 45 0.0 0.0 0.00 0.00 0.00 1017.3
20200220063039 51 22 0.0 0.0 0.00 0.00 0.00 1017.3
20200220062938 51 22 0.0 0.0 0.00 0.00 0.00 1017.2
20200220062839 51 22 0.0 0.0 0.00 0.00 0.00 1017.1
20200220062439 51 0 0.0 1.0 0.00 0.00 0.00 1017.2
20200220062339 51 22 0.0 0.0 0.00 0.00 0.00 1017.1
20200220062239 51 22 0.0 0.0 0.00 0.00 0.00 1017.3
20200220062138 51 22 0.0 0.0 0.00 0.00 0.00 1017.2
20200220062039 51 0 0.0 0.0 0.00 0.00 0.00 1017.4
20200220061639 51 0 0.0 0.0 0.00 0.00 0.00 1017.3
20200220061539 52 0 0.0 0.0 0.00 0.00 0.00 1017.2
20200220061439 52 22 0.0 0.0 0.00 0.00 0.00 1017.2
20200220061339 51 0 0.0 0.0 0.00 0.00 0.00 1017.3
20200220061238 51 0 0.0 0.0 0.00 0.00 0.00 1017.2
20200220061139 51 0 0.0 0.0 0.00 0.00 0.00 1017.2
20200220060739 51 22 0.0 0.0 0.00 0.00 0.00 1017.2
20200220060639 51 22 0.0 0.0 0.00 0.00 0.00 1017.2
20200220060239 52 22 0.0 0.0 0.00 0.00 0.00 1017.3
20200220055838 51 22 0.0 0.0 0.00 0.00 0.00 1017.4
20200220055739 51 22 0.0 0.0 0.00 0.00 0.00 1017.5
20200220055639 51 22 0.0 0.0 0.00 0.00 0.00 1017.3
20200220055539 52 22 0.0 0.0 0.00 0.00 0.00 1017.4
20200220055139 52 292 0.0 0.0 0.00 0.00 0.00 1017.2
20200220055039 52 292 0.0 0.0 0.00 0.00 0.00 1017.2
20200220054939 52 292 0.0 0.0 0.00 0.00 0.00 1017.4
20200220054839 52 292 0.0 0.0 0.00 0.00 0.00 1017.1
20200220054439 52 292 0.0 0.0 0.00 0.00 0.00 1017.3
20200220054339 52 292 0.0 0.0 0.00 0.00 0.00 1017.4
20200220054239 52 292 0.0 0.0 0.00 0.00 0.00 1017.3
20200220054139 52 22 0.0 0.0 0.00 0.00 0.00 1017.2
20200220054039 52 22 0.0 0.0 0.00 0.00 0.00 1017.1
20200220053939 52 22 0.0 0.0 0.00 0.00 0.00 1017.3
20200220053839 52 22 0.0 0.0 0.00 0.00 0.00 1017.3
20200220053739 52 22 0.0 0.0 0.00 0.00 0.00 1017.1
20200220053639 52 22 0.0 0.0 0.00 0.00 0.00 1017.1
20200220053539 52 22 0.0 0.0 0.00 0.00 0.00 1017.1
20200220053439 52 22 0.0 0.0 0.00 0.00 0.00 1017.3
20200220053039 53 315 0.0 0.0 0.00 0.00 0.00 1017.3
20200220052638 53 315 0.0 0.0 0.00 0.00 0.00 1017.2
20200220052539 53 315 0.0 0.0 0.00 0.00 0.00 1017.3
20200220052139 53 337 0.0 0.0 0.00 0.00 0.00 1017.2
20200220052039 53 337 0.0 0.0 0.00 0.00 0.00 1017.1
20200220051939 53 337 0.0 0.0 0.00 0.00 0.00 1017.0
20200220051539 53 0 0.0 1.0 0.00 0.00 0.00 1017.3
20200220051439 53 0 0.0 1.0 0.00 0.00 0.00 1017.2
20200220051339 53 337 0.0 1.0 0.00 0.00 0.00 1017.1
20200220051239 53 337 0.0 0.0 0.00 0.00 0.00 1017.2
20200220050839 53 247 0.0 0.0 0.00 0.00 0.00 1017.1
20200220050739 53 225 0.0 0.0 0.00 0.00 0.00 1016.7
20200220050339 54 225 0.0 0.0 0.00 0.00 0.00 1016.6
20200220050238 54 247 0.0 0.0 0.00 0.00 0.00 1016.9
20200220050139 54 225 0.0 1.0 0.00 0.00 0.00 1016.7
20200220045439 53 202 0.0 0.0 0.00 0.00 0.00 1016.6
20200220043539 54 202 0.0 0.0 0.00 0.00 0.00 1016.2
20200220043439 54 202 0.0 0.0 0.00 0.00 0.00 1016.0
20200220043339 54 202 0.0 0.0 0.00 0.00 0.00 1016.6
20200220042639 54 202 0.0 0.0 0.00 0.00 0.00 1016.3
20200220042539 54 202 0.0 0.0 0.00 0.00 0.00 1016.3
20200220042439 54 202 0.0 0.0 0.00 0.00 0.00 1016.5
20200220042039 54 202 0.0 0.0 0.00 0.00 0.00 1015.9
20200220041339 54 202 0.0 0.0 0.00 0.00 0.00 1016.3
20200220040639 55 202 0.0 0.0 0.00 0.00 0.00 1015.9
20200220040539 55 202 0.0 0.0 0.00 0.00 0.00 1016.1
20200220040439 55 202 0.0 0.0 0.00 0.00 0.00 1016.5
20200220035739 55 202 0.0 0.0 0.00 0.00 0.00 1016.0
20200220035339 55 202 0.0 0.0 0.00 0.00 0.00 1016.0
20200220035239 55 202 0.0 0.0 0.00 0.00 0.00 1016.1
20200220035138 55 202 0.0 0.0 0.00 0.00 0.00 1015.8
20200220034739 56 202 0.0 0.0 0.00 0.00 0.00 1015.9
20200220034039 56 202 0.0 0.0 0.00 0.00 0.00 1015.8
20200220033339 57 202 0.0 0.0 0.00 0.00 0.00 1015.8
20200220032938 57 225 0.0 0.0 0.00 0.00 0.00 1015.9
20200220032839 57 225 0.0 0.0 0.00 0.00 0.00 1015.7
20200220032738 57 225 0.0 0.0 0.00 0.00 0.00 1016.1
20200220031739 59 225 0.0 1.0 0.00 0.00 0.00 1015.6
20200220031639 59 225 1.0 2.0 0.00 0.00 0.00 1015.7
20200220031539 59 225 1.0 1.0 0.00 0.00 0.00 1015.6
20200220030838 60 225 1.0 2.0 0.00 0.00 0.00 1015.6
20200220030439 60 225 1.0 2.0 0.00 0.00 0.00 1015.6
20200220025739 60 270 0.0 1.0 0.00 0.00 0.00 1015.4
20200220025639 60 225 1.0 2.0 0.00 0.00 0.00 1015.7
20200220025539 60 225 2.0 3.0 0.00 0.00 0.00 1015.6
20200220024839 60 225 0.0 0.0 0.00 0.00 0.00 1015.5
20200220024739 60 202 0.0 1.0 0.00 0.00 0.00 1015.7
20200220024639 61 225 0.0 1.0 0.00 0.00 0.00 1015.7
20200220024238 61 225 1.0 2.0 0.00 0.00 0.00 1015.8
20200220024138 61 225 1.0 2.0 0.00 0.00 0.00 1015.8
20200220023439 61 225 1.0 2.0 0.00 0.00 0.00 1015.6
20200220023339 61 225 2.0 3.0 0.00 0.00 0.00 1015.4
20200220023238 61 225 2.0 4.0 0.00 0.00 0.00 1015.4
20200220023139 61 247 3.0 4.0 0.00 0.00 0.00 1015.4
20200220022739 61 270 2.0 4.0 0.00 0.00 0.00 1015.4
20200220022639 61 247 1.0 2.0 0.00 0.00 0.00 1015.3
20200220021939 62 270 3.0 4.0 0.00 0.00 0.00 1015.2
20200220021838 62 247 2.0 4.0 0.00 0.00 0.00 1015.3
20200220021741 62 202 3.0 4.0 0.00 0.00 0.00 1015.2
20200220021639 62 247 2.0 2.0 0.00 0.00 0.00 1015.1
20200220021538 62 247 2.0 2.0 0.00 0.00 0.00 1015.1
20200220021439 62 247 2.0 3.0 0.00 0.00 0.00 1015.0
20200220021339 62 225 2.0 3.0 0.00 0.00 0.00 1015.2
20200220020939 62 225 2.0 2.0 0.00 0.00 0.00 1015.1
20200220020839 62 225 0.0 1.0 0.00 0.00 0.00 1015.1
20200220020738 62 225 1.0 1.0 0.00 0.00 0.00 1015.1
20200220020339 62 270 1.0 1.0 0.00 0.00 0.00 1015.0
20200220020238 62 270 1.0 2.0 0.00 0.00 0.00 1015.0
20200220020139 62 225 3.0 4.0 0.00 0.00 0.00 1015.0
20200220020039 62 225 2.0 3.0 0.00 0.00 0.00 1015.0
20200220015939 62 225 2.0 4.0 0.00 0.00 0.00 1015.0
20200220015839 62 247 1.0 2.0 0.00 0.00 0.00 1014.9
20200220015739 63 225 1.0 2.0 0.00 0.00 0.00 1015.0
20200220015639 63 225 2.0 4.0 0.00 0.00 0.00 1015.0
20200220015238 63 247 2.0 3.0 0.00 0.00 0.00 1014.9
20200220014839 63 202 0.0 1.0 0.00 0.00 0.00 1014.9
20200220014739 63 225 0.0 1.0 0.00 0.00 0.00 1014.9
20200220014639 63 225 1.0 2.0 0.00 0.00 0.00 1014.8
20200220014539 63 247 2.0 2.0 0.00 0.00 0.00 1015.0
20200220014438 63 247 1.0 2.0 0.00 0.00 0.00 1015.0
20200220014339 63 270 2.0 3.0 0.00 0.00 0.00 1014.9
20200220013939 63 225 1.0 2.0 0.00 0.00 0.00 1014.8
20200220013839 64 180 3.0 4.0 0.00 0.00 0.00 1014.9
20200220013739 64 225 1.0 4.0 0.00 0.00 0.00 1014.8
20200220013638 64 225 0.0 1.0 0.00 0.00 0.00 1014.8
20200220013539 64 270 1.0 2.0 0.00 0.00 0.00 1014.8
20200220013439 64 157 0.0 1.0 0.00 0.00 0.00 1014.8
20200220013339 64 225 1.0 2.0 0.00 0.00 0.00 1014.8
20200220013239 64 247 2.0 4.0 0.00 0.00 0.00 1014.8
20200220013139 64 225 1.0 2.0 0.00 0.00 0.00 1014.8
20200220013039 64 225 2.0 4.0 0.00 0.00 0.00 1014.9
20200220012939 64 225 2.0 3.0 0.00 0.00 0.00 1014.8
20200220012839 64 225 3.0 4.0 0.00 0.00 0.00 1014.9
20200220012739 64 247 2.0 3.0 0.00 0.00 0.00 1014.8
20200220012639 64 292 1.0 3.0 0.00 0.00 0.00 1014.8
20200220012239 64 247 3.0 5.0 0.00 0.00 0.00 1014.7
20200220012139 65 247 2.0 4.0 0.00 0.00 0.00 1014.7
20200220012039 65 247 3.0 4.0 0.00 0.00 0.00 1014.7
20200220011938 65 225 2.0 3.0 0.00 0.00 0.00 1014.7
20200220011839 65 225 2.0 4.0 0.00 0.00 0.00 1014.7
20200220011739 65 225 1.0 2.0 0.00 0.00 0.00 1014.8
20200220011639 65 225 2.0 3.0 0.00 0.00 0.00 1014.7
20200220011539 65 225 2.0 3.0 0.00 0.00 0.00 1014.7
20200220011439 65 225 3.0 3.0 0.00 0.00 0.00 1014.6
20200220011339 65 270 2.0 4.0 0.00 0.00 0.00 1014.6
20200220010939 65 157 3.0 4.0 0.00 0.00 0.00 1014.6
20200220010539 66 225 3.0 5.0 0.00 0.00 0.00 1014.8
20200220010439 66 225 1.0 2.0 0.00 0.00 0.00 1014.5
20200220010339 66 135 1.0 2.0 0.00 0.00 0.00 1014.4
20200220010238 66 157 1.0 2.0 0.00 0.00 0.00 1014.5
20200220010139 66 225 0.0 1.0 0.00 0.00 0.00 1014.5
20200220010039 66 180 2.0 4.0 0.00 0.00 0.00 1014.6
20200220005639 67 225 1.0 3.0 0.00 0.00 0.00 1014.4